TimeEST,TemperatureF,Dew PointF,Humidity,Sea Level PressureIn,VisibilityMPH,Wind Direction,Wind SpeedMPH,Gust SpeedMPH,PrecipitationIn,Events,Conditions,WindDirDegrees,DateUTC
12:53 AM,64.0,62.1,93,30.11,10.0,Calm,Calm,-,N/A,,Clear,0,2013-01-20 05:53:00
1:23 AM,64.4,62.6,94,30.10,8.0,Calm,Calm,-,N/A,,Scattered Clouds,0,2013-01-20 06:23:00
1:32 AM,64.4,62.6,94,30.10,2.5,North,4.6,-,N/A,,Mostly Cloudy,10,2013-01-20 06:32:00
1:38 AM,64.4,64.4,100,30.10,0.8,North,3.5,-,N/A,,Mist,360,2013-01-20 06:38:00
1:53 AM,64.9,64.9,100,30.10,0.5,NE,3.5,-,N/A,Fog,Fog,40,2013-01-20 06:53:00
2:05 AM,64.4,64.4,100,30.09,0.5,Calm,Calm,-,N/A,Fog,Fog,0,2013-01-20 07:05:00
2:28 AM,64.4,64.4,100,30.09,0.8,Calm,Calm,-,N/A,,Mist,0,2013-01-20 07:28:00
2:36 AM,64.4,64.4,100,30.08,1.2,North,3.5,-,N/A,,Overcast,10,2013-01-20 07:36:00
2:53 AM,64.9,64.9,100,30.08,2.5,NW,3.5,-,N/A,,Overcast,320,2013-01-20 07:53:00
3:02 AM,64.4,64.4,100,30.08,3.0,Calm,Calm,-,N/A,,Overcast,0,2013-01-20 08:02:00
3:08 AM,64.4,64.4,100,30.09,1.8,Calm,Calm,-,N/A,,Overcast,0,2013-01-20 08:08:00
3:33 AM,64.4,64.4,100,30.08,0.8,NNW,3.5,-,N/A,,Mist,340,2013-01-20 08:33:00
3:43 AM,64.4,64.4,100,30.08,0.5,Calm,Calm,-,N/A,Fog,Fog,0,2013-01-20 08:43:00
3:53 AM,64.9,64.9,100,30.08,0.5,ENE,3.5,-,N/A,Fog,Fog,70,2013-01-20 08:53:00
4:53 AM,64.9,64.9,100,30.09,0.5,NW,3.5,-,0.01,Fog,Fog,310,2013-01-20 09:53:00
5:12 AM,64.4,64.4,100,30.09,2.0,Calm,Calm,-,N/A,,Overcast,0,2013-01-20 10:12:00
5:20 AM,64.4,64.4,100,30.09,7.0,Calm,Calm,-,N/A,,Overcast,0,2013-01-20 10:20:00
5:34 AM,64.4,64.4,100,30.10,1.8,WNW,5.8,-,N/A,,Overcast,290,2013-01-20 10:34:00
5:41 AM,64.4,64.4,100,30.11,3.0,WNW,5.8,-,N/A,,Overcast,300,2013-01-20 10:41:00
5:53 AM,64.9,64.9,100,30.11,8.0,NW,4.6,-,N/A,,Overcast,320,2013-01-20 10:53:00
6:41 AM,66.2,64.4,94,30.11,10.0,NNW,3.5,-,N/A,,Overcast,340,2013-01-20 11:41:00
6:53 AM,66.0,64.9,96,30.11,10.0,North,4.6,-,N/A,,Overcast,350,2013-01-20 11:53:00
7:53 AM,66.0,64.9,96,30.13,9.0,NNE,4.6,-,N/A,,Mostly Cloudy,30,2013-01-20 12:53:00
8:53 AM,68.0,66.9,96,30.15,8.0,ENE,4.6,-,N/A,,Mostly Cloudy,60,2013-01-20 13:53:00
9:03 AM,68.0,66.2,94,30.15,10.0,ENE,3.5,-,N/A,,Partly Cloudy,70,2013-01-20 14:03:00
9:53 AM,71.1,66.9,87,30.17,10.0,WNW,3.5,-,N/A,,Partly Cloudy,300,2013-01-20 14:53:00
10:53 AM,75.9,66.9,74,30.14,10.0,NNW,4.6,-,N/A,,Clear,330,2013-01-20 15:53:00
11:53 AM,79.0,64.0,60,30.11,10.0,Variable,4.6,-,N/A,,Clear,0,2013-01-20 16:53:00
12:53 PM,81.0,62.1,52,30.06,10.0,Calm,Calm,-,N/A,,Clear,0,2013-01-20 17:53:00
1:53 PM,80.1,62.1,54,30.04,10.0,Calm,Calm,-,N/A,,Mostly Cloudy,0,2013-01-20 18:53:00
2:53 PM,79.0,63.0,58,30.03,10.0,SE,5.8,-,N/A,,Overcast,130,2013-01-20 19:53:00
3:53 PM,79.0,62.1,56,30.03,10.0,South,4.6,-,N/A,,Mostly Cloudy,170,2013-01-20 20:53:00
4:53 PM,77.0,62.1,60,30.04,10.0,South,4.6,-,N/A,,Mostly Cloudy,170,2013-01-20 21:53:00
5:53 PM,75.0,64.9,71,30.04,10.0,SE,4.6,-,N/A,,Mostly Cloudy,130,2013-01-20 22:53:00
6:53 PM,73.0,64.9,76,30.05,10.0,SE,3.5,-,N/A,,Mostly Cloudy,130,2013-01-20 23:53:00
7:53 PM,71.1,64.9,81,30.05,10.0,Calm,Calm,-,N/A,,Clear,0,2013-01-21 00:53:00
8:53 PM,68.0,66.0,93,30.06,10.0,Calm,Calm,-,N/A,,Mostly Cloudy,0,2013-01-21 01:53:00
9:53 PM,69.1,66.9,93,30.07,10.0,Calm,Calm,-,N/A,,Mostly Cloudy,0,2013-01-21 02:53:00
10:53 PM,68.0,66.0,93,30.06,10.0,Calm,Calm,-,N/A,,Mostly Cloudy,0,2013-01-21 03:53:00
11:45 PM,68.0,66.2,94,30.06,9.0,North,3.5,-,N/A,,Overcast,10,2013-01-21 04:45:00
11:53 PM,68.0,66.9,96,30.06,8.0,Calm,Calm,-,N/A,,Overcast,0,2013-01-21 04:53:00